Location: *
(48.7358°N, 0.3111°E)
Time: 00:58:49
(UTC+00:00)

BREEZE-M DEB (TANK) - Pass Details

Date: 22 October 2019
Orbit: 327 x 16738 km, 49.5° (Epoch: 14 November)

Event Time Altitude Azimuth Distance (km) Brightness Sun altitude
Exits shadow 04:53:38 60° 297° (WNW) 379 1.7 -16.4°
Maximum altitude 04:53:55 74° 356° (N) 346 1.7 -16.3°
Drops below altitude 10° 04:56:29 10° 84° (E) 1,449 6.3 -15.9°
Sets 04:59:00 0° 86° (E) 2,784 8.3 -15.5°
